START_TIME,STEP,MOV.,M29,t_acc.,H22,t_acc.,H26,t_acc.,H30,t_acc.
1979-03-04 15:13:33.410 ,0,0,0.,24.0,0.,24.0,0.,24.0,0.,24.0
1979-03-04 15:13:57.410 ,5,1,0.,24.0,0.,24.0,0.,24.0,0.,24.0
1979-03-04 15:14:21.410 ,6,1,0.,24.0,0.,24.0,0.,24.0,0.,24.0
1979-03-04 15:14:45.410 ,7,1,0.,24.0,0.,24.0,0.,24.0,0.,24.0
1979-03-04 15:15:09.410 ,7,1,0.,24.0,0.,24.0,0.,24.0,0.,24.0
1979-03-04 15:15:33.410 ,6,1,0.,24.0,0.,24.0,0.,24.0,0.,24.0
1979-03-04 15:15:57.410 ,5,1,0.,24.0,0.,24.0,0.,24.0,0.,24.0
1979-03-04 15:16:21.410 ,4,1,0.,24.0,0.,24.0,0.,24.0,0.,24.0
1979-03-04 15:16:45.410 ,3,1,0.,24.0,0.,24.0,0.,24.0,0.,24.0
1979-03-04 15:17:09.410 ,2,1,0.,24.0,0.,24.0,0.,24.0,0.,24.0
1979-03-04 15:17:33.410 ,1,1,0.,24.0,0.,24.0,0.,24.0,0.,24.0
1979-03-04 15:17:57.410 ,0,1,0.,24.0,0.,24.0,0.,24.0,0.,24.0
1979-03-04 15:18:21.410 ,0,1,0.,24.0,0.,24.0,0.,24.0,0.,24.0
1979-03-04 15:18:45.410 ,1,1,0.,24.0,0.,24.0,0.,24.0,0.,24.0
1979-03-04 15:19:09.410 ,2,1,0.,24.0,0.,24.0,0.,24.0,0.,24.0
1979-03-04 15:19:33.410 ,3,1,0.,24.0,0.,24.0,0.,24.0,0.,24.0
1979-03-04 15:19:57.410 ,4,1,0.,24.0,0.,24.0,0.,24.0,0.,24.0
1979-03-04 15:20:21.410 ,5,1,0.,24.0,0.,24.0,0.,24.0,0.,24.0
1979-03-04 15:20:45.410 ,6,1,0.,24.0,0.,24.0,0.,24.0,0.,24.0
1979-03-04 15:21:09.410 ,7,1,0.,24.0,0.,24.0,0.,24.0,0.,24.0
1979-03-04 15:21:33.410 ,7,1,0.,24.0,0.,24.0,0.,24.0,0.,24.0
1979-03-04 15:21:57.410 ,6,1,0.,24.0,0.,24.0,0.,24.0,0.,24.0
1979-03-04 15:22:21.410 ,5,1,0.,24.0,0.,24.0,0.,24.0,0.,24.0
1979-03-04 15:22:45.410 ,4,1,0.,24.0,0.,24.0,0.,24.0,0.,24.0
1979-03-04 15:23:09.410 ,0,0,0.,24.0,0.,24.0,0.,24.0,0.,24.0
1979-03-04 15:23:33.410 ,2,1,0.,24.0,0.,24.0,0.,24.0,0.,24.0
1979-03-04 15:23:57.410 ,1,1,0.,24.0,0.,24.0,0.,24.0,0.,24.0
1979-03-04 15:24:21.410 ,0,1,0.,24.0,0.,24.0,0.,24.0,0.,24.0
1979-03-04 15:24:45.410 ,0,1,0.,24.0,0.,24.0,0.,24.0,0.,24.0
1979-03-04 15:25:09.410 ,1,1,0.,24.0,0.,24.0,0.,24.0,0.,24.0
1979-03-04 15:25:33.410 ,2,1,0.,24.0,0.,24.0,0.,24.0,0.,24.0
1979-03-04 15:25:57.410 ,3,1,0.,24.0,0.,24.0,0.,24.0,0.,24.0
1979-03-04 15:26:21.410 ,4,1,0.,24.0,0.,24.0,0.,24.0,0.,24.0
1979-03-04 15:26:45.410 ,5,1,0.,24.0,0.,24.0,0.,24.0,0.,24.0
1979-03-04 15:27:09.410 ,6,1,0.,24.0,0.,24.0,0.,24.0,0.,24.0
1979-03-04 15:27:33.410 ,7,1,0.,24.0,0.,24.0,0.,24.0,0.,24.0
1979-03-04 15:27:57.410 ,7,1,0.,24.0,0.,24.0,0.,24.0,0.,24.0
1979-03-04 15:28:21.410 ,6,1,0.,24.0,0.,24.0,0.,24.0,0.,24.0
1979-03-04 15:28:45.410 ,5,1,0.,24.0,0.,24.0,0.,24.0,0.,24.0
1979-03-04 15:29:09.410 ,4,1,0.,24.0,0.,24.0,0.,24.0,0.,24.0
1979-03-04 15:29:33.410 ,3,1,0.,24.0,0.,24.0,0.,24.0,0.,24.0
1979-03-04 15:29:57.410 ,2,1,0.,24.0,0.,24.0,0.,24.0,0.,24.0
1979-03-04 15:30:21.410 ,1,1,0.,24.0,0.,24.0,0.,24.0,0.,24.0
1979-03-04 15:30:45.410 ,0,1,0.,24.0,0.,24.0,0.,24.0,0.,24.0
1979-03-04 15:31:09.410 ,0,1,0.,24.0,0.,24.0,0.,24.0,0.,24.0
1979-03-04 15:31:33.410 ,1,1,0.,24.0,0.,24.0,0.,24.0,0.,24.0
1979-03-04 15:31:57.410 ,2,1,0.,24.0,0.,24.0,0.,24.0,0.,24.0
1979-03-04 15:32:21.410 ,3,1,0.,24.0,0.,24.0,0.,24.0,0.,24.0
1979-03-04 15:32:45.410 ,4,1,0.,24.0,0.,24.0,0.,24.0,0.,24.0
1979-03-04 15:33:09.410 ,5,1,0.,24.0,0.,24.0,0.,24.0,0.,24.0
1979-03-04 15:33:33.410 ,6,1,0.,24.0,0.,24.0,0.,24.0,0.,24.0
1979-03-04 15:33:57.410 ,7,1,0.,24.0,0.,24.0,0.,24.0,0.,24.0
1979-03-04 15:34:21.410 ,7,1,0.,24.0,0.,24.0,0.,24.0,0.,24.0
1979-03-04 15:34:45.410 ,6,1,0.,24.0,0.,24.0,0.,24.0,0.,24.0
1979-03-04 15:35:09.410 ,5,1,0.,24.0,0.,24.0,0.,24.0,0.,24.0
1979-03-04 15:35:33.410 ,4,1,0.,24.0,0.,24.0,0.,24.0,0.,24.0
1979-03-04 15:35:57.410 ,3,1,0.,24.0,0.,24.0,0.,24.0,0.,24.0
1979-03-04 15:36:21.410 ,2,1,0.,24.0,0.,24.0,0.,24.0,0.,24.0
1979-03-04 15:36:45.410 ,1,1,0.,24.0,0.,24.0,0.,24.0,0.,24.0
1979-03-04 15:37:09.410 ,0,1,0.,24.0,0.,24.0,0.,24.0,0.,24.0
1979-03-04 15:37:33.410 ,0,1,0.,24.0,0.,24.0,0.,24.0,0.,24.0
1979-03-04 15:37:57.410 ,1,1,0.,24.0,0.,24.0,0.,24.0,0.,24.0
1979-03-04 15:38:21.410 ,2,1,0.,24.0,0.,24.0,0.,24.0,0.,24.0
1979-03-04 15:38:45.410 ,3,1,0.,24.0,0.,24.0,0.,24.0,0.,24.0
1979-03-04 15:39:09.410 ,4,1,0.,24.0,0.,24.0,0.,24.0,0.,24.0
1979-03-04 15:39:33.410 ,5,1,0.,24.0,0.,24.0,0.,24.0,0.,24.0
1979-03-04 15:39:57.410 ,6,1,0.,24.0,0.,24.0,0.,24.0,0.,24.0
1979-03-04 15:40:21.410 ,7,1,0.,24.0,0.,24.0,0.,24.0,0.,24.0
1979-03-04 15:40:45.410 ,7,1,0.,24.0,0.,24.0,0.,24.0,0.,24.0
1979-03-04 15:41:09.410 ,6,1,0.,24.0,0.,24.0,0.,24.0,0.,24.0
1979-03-04 15:41:33.410 ,5,1,0.,24.0,0.,24.0,0.,24.0,0.,24.0
1979-03-04 15:41:57.410 ,4,1,0.,24.0,0.,24.0,0.,24.0,0.,24.0
1979-03-04 15:42:21.410 ,3,1,0.,24.0,0.,24.0,0.,24.0,0.,24.0
1979-03-04 15:42:45.410 ,2,1,0.,24.0,0.,24.0,0.,24.0,0.,24.0
1979-03-04 15:43:09.410 ,1,1,0.,24.0,0.,24.0,0.,24.0,0.,24.0
1979-03-04 15:43:33.410 ,0,1,0.,24.0,0.,24.0,0.,24.0,0.,24.0
1979-03-04 15:43:57.410 ,0,1,0.,24.0,0.,24.0,0.,24.0,0.,24.0
1979-03-04 15:44:21.410 ,1,1,0.,24.0,0.,24.0,0.,24.0,0.,24.0
1979-03-04 15:44:45.410 ,2,1,0.,24.0,0.,24.0,0.,24.0,0.,24.0
1979-03-04 15:45:09.410 ,3,1,0.,24.0,0.,24.0,0.,24.0,0.,24.0
1979-03-04 15:45:33.410 ,4,1,0.,24.0,0.,24.0,0.,24.0,0.,24.0
1979-03-04 15:45:57.410 ,5,1,0.,24.0,0.,24.0,0.,24.0,0.,24.0
1979-03-04 15:46:21.410 ,6,1,0.,24.0,0.,24.0,0.,24.0,0.,24.0
1979-03-04 15:46:45.410 ,7,1,0.,24.0,0.,24.0,0.,24.0,0.,24.0
1979-03-04 15:47:09.410 ,7,1,0.,24.0,0.,24.0,0.,24.0,0.,24.0
1979-03-04 15:47:33.410 ,6,1,0.,24.0,0.,24.0,0.,24.0,0.,24.0
1979-03-04 15:47:57.410 ,5,1,0.,24.0,0.,24.0,0.,24.0,0.,24.0
1979-03-04 15:48:21.410 ,4,1,0.,24.0,0.,24.0,0.,24.0,0.,24.0
1979-03-04 15:48:45.410 ,3,1,0.,24.0,0.,24.0,0.,24.0,0.,24.0
1979-03-04 15:49:09.410 ,2,1,0.,24.0,0.,24.0,0.,24.0,0.,24.0
1979-03-04 15:49:33.410 ,1,1,0.,24.0,0.,24.0,0.,24.0,0.,24.0
1979-03-04 15:49:57.410 ,0,1,0.,24.0,0.,24.0,0.,24.0,0.,24.0
1979-03-04 15:50:21.410 ,0,1,0.,24.0,0.,24.0,0.,24.0,0.,24.0
1979-03-04 15:50:45.410 ,1,1,0.,24.0,0.,24.0,0.,24.0,0.,24.0
1979-03-04 15:51:09.410 ,2,1,0.,24.0,0.,24.0,0.,24.0,0.,24.0
1979-03-04 15:51:33.410 ,3,1,0.,24.0,0.,24.0,0.,24.0,0.,24.0
1979-03-04 15:51:57.410 ,4,1,0.,24.0,0.,24.0,0.,24.0,0.,24.0
1979-03-04 15:52:21.410 ,5,1,0.,24.0,0.,24.0,0.,24.0,0.,24.0
1979-03-04 15:52:45.410 ,6,1,0.,24.0,0.,24.0,0.,24.0,0.,24.0
1979-03-04 15:53:09.410 ,7,1,0.,24.0,0.,24.0,0.,24.0,0.,24.0
1979-03-04 15:53:33.410 ,7,1,0.,24.0,0.,24.0,0.,24.0,0.,24.0
1979-03-04 15:53:57.410 ,6,1,0.,24.0,0.,24.0,0.,24.0,0.,24.0
1979-03-04 15:54:21.410 ,5,1,0.,24.0,0.,24.0,0.,24.0,0.,24.0
1979-03-04 15:54:45.410 ,4,1,0.,24.0,0.,24.0,0.,24.0,0.,24.0
1979-03-04 15:55:09.410 ,3,1,0.,24.0,0.,24.0,0.,24.0,0.,24.0
1979-03-04 15:55:33.410 ,2,1,0.,24.0,0.,24.0,0.,24.0,0.,24.0
1979-03-04 15:55:57.410 ,1,1,0.,24.0,0.,24.0,0.,24.0,0.,24.0
1979-03-04 15:56:21.410 ,0,1,0.,24.0,0.,24.0,0.,24.0,0.,24.0
1979-03-04 15:56:45.410 ,0,1,0.,24.0,0.,24.0,0.,24.0,0.,24.0
1979-03-04 15:57:09.410 ,1,1,0.,24.0,0.,24.0,0.,24.0,0.,24.0
1979-03-04 15:57:33.410 ,2,1,0.,24.0,0.,24.0,0.,24.0,0.,24.0
1979-03-04 15:57:57.410 ,3,1,0.,24.0,0.,24.0,0.,24.0,0.,24.0
1979-03-04 15:58:21.410 ,4,1,0.,24.0,0.,24.0,0.,24.0,0.,24.0
1979-03-04 15:58:45.410 ,5,1,0.,24.0,0.,24.0,0.,24.0,0.,24.0
1979-03-04 15:59:09.410 ,6,1,0.,24.0,0.,24.0,0.,24.0,0.,24.0
1979-03-04 15:59:33.410 ,7,1,0.,24.0,0.,24.0,0.,24.0,0.,24.0
1979-03-04 15:59:57.410 ,7,1,0.,24.0,0.,24.0,0.,24.0,0.,24.0
1979-03-04 16:00:21.410 ,6,1,0.,24.0,0.,24.0,0.,24.0,0.,24.0
1979-03-04 16:00:45.410 ,5,1,0.,24.0,0.,24.0,0.,24.0,0.,24.0
1979-03-04 16:01:09.410 ,4,1,0.,24.0,0.,24.0,0.,24.0,0.,24.0
1979-03-04 16:01:33.410 ,3,1,0.,24.0,0.,24.0,0.,24.0,0.,24.0
1979-03-04 16:01:57.410 ,2,1,0.,24.0,0.,24.0,0.,24.0,0.,24.0
1979-03-04 16:02:21.410 ,1,1,0.,24.0,0.,24.0,0.,24.0,0.,24.0
1979-03-04 16:02:45.410 ,0,1,0.,24.0,0.,24.0,0.,24.0,0.,24.0
1979-03-04 16:03:09.410 ,0,1,0.,24.0,0.,24.0,0.,24.0,0.,24.0
1979-03-04 16:03:33.410 ,1,1,0.,24.0,0.,24.0,0.,24.0,0.,24.0
1979-03-04 16:03:57.410 ,2,1,0.,24.0,0.,24.0,0.,24.0,0.,24.0
1979-03-04 16:04:21.410 ,3,1,0.,24.0,0.,24.0,0.,24.0,0.,24.0
1979-03-04 16:04:45.410 ,4,1,0.,24.0,0.,24.0,0.,24.0,0.,24.0
1979-03-04 16:05:09.410 ,5,1,0.,24.0,0.,24.0,0.,24.0,0.,24.0
1979-03-04 16:05:33.410 ,6,1,0.,24.0,0.,24.0,0.,24.0,0.,24.0
1979-03-04 16:05:57.410 ,7,1,0.,24.0,0.,24.0,0.,24.0,0.,24.0
1979-03-04 16:06:21.410 ,7,1,0.,24.0,0.,24.0,0.,24.0,0.,24.0
1979-03-04 16:06:45.410 ,6,1,0.,24.0,0.,24.0,0.,24.0,0.,24.0
1979-03-04 16:07:09.410 ,5,1,0.,24.0,0.,24.0,0.,24.0,0.,24.0
1979-03-04 16:07:33.410 ,4,1,0.,24.0,0.,24.0,0.,24.0,0.,24.0
1979-03-04 16:07:57.410 ,3,1,0.,24.0,0.,24.0,0.,24.0,0.,24.0
1979-03-04 16:08:21.410 ,2,1,0.,24.0,0.,24.0,0.,24.0,0.,24.0
1979-03-04 16:08:45.410 ,1,1,0.,24.0,0.,24.0,0.,24.0,0.,24.0
1979-03-04 16:09:09.410 ,0,1,0.,24.0,0.,24.0,0.,24.0,0.,24.0
1979-03-04 16:09:33.410 ,0,1,0.,24.0,0.,24.0,0.,24.0,0.,24.0
1979-03-04 16:09:57.410 ,1,1,0.,24.0,0.,24.0,0.,24.0,0.,24.0
1979-03-04 16:10:21.410 ,2,1,0.,24.0,0.,24.0,0.,24.0,0.,24.0
1979-03-04 16:10:45.410 ,0,0,0.,24.0,0.,24.0,0.,24.0,0.,24.0
1979-03-04 16:11:17.810 ,0,0,0.,24.0,0.,24.0,0.,24.0,0.,24.0
1979-03-04 16:11:33.410 ,5,1,0.,24.0,0.,24.0,0.,24.0,0.,24.0
1979-03-04 16:11:57.410 ,6,1,0.,24.0,0.,24.0,0.,24.0,0.,24.0
1979-03-04 16:12:21.410 ,7,1,0.,24.0,0.,24.0,0.,24.0,0.,24.0
1979-03-04 16:12:45.410 ,7,1,0.,24.0,0.,24.0,0.,24.0,0.,24.0
1979-03-04 16:13:09.410 ,6,1,0.,24.0,0.,24.0,0.,24.0,0.,24.0
1979-03-04 16:13:33.410 ,5,1,0.,24.0,0.,24.0,0.,24.0,0.,24.0
1979-03-04 16:13:57.410 ,4,1,0.,24.0,0.,24.0,0.,24.0,0.,24.0
1979-03-04 16:14:21.410 ,3,1,0.,24.0,0.,24.0,0.,24.0,0.,24.0
1979-03-04 16:14:45.410 ,2,1,0.,24.0,0.,24.0,0.,24.0,0.,24.0
1979-03-04 16:15:09.410 ,1,1,0.,24.0,0.,24.0,0.,24.0,0.,24.0
1979-03-04 16:15:33.410 ,0,1,0.,24.0,0.,24.0,0.,24.0,0.,24.0
1979-03-04 16:15:57.410 ,0,1,0.,24.0,0.,24.0,0.,24.0,0.,24.0
1979-03-04 16:16:21.410 ,1,1,0.,24.0,0.,24.0,0.,24.0,0.,24.0
1979-03-04 16:16:45.410 ,2,1,0.,24.0,0.,24.0,0.,24.0,0.,24.0
1979-03-04 16:17:09.410 ,3,1,0.,24.0,0.,24.0,0.,24.0,0.,24.0
1979-03-04 16:17:33.410 ,4,1,0.,24.0,0.,24.0,0.,24.0,0.,24.0
1979-03-04 16:17:57.410 ,5,1,0.,24.0,0.,24.0,0.,24.0,0.,24.0
1979-03-04 16:18:21.410 ,6,1,0.,24.0,0.,24.0,0.,24.0,0.,24.0
1979-03-04 16:18:45.410 ,7,1,0.,24.0,0.,24.0,0.,24.0,0.,24.0
1979-03-04 16:19:09.410 ,7,1,0.,24.0,0.,24.0,0.,24.0,0.,24.0
1979-03-04 16:19:33.410 ,6,1,0.,24.0,0.,24.0,0.,24.0,0.,24.0
1979-03-04 16:19:57.410 ,5,1,0.,24.0,0.,24.0,0.,24.0,0.,24.0
1979-03-04 16:20:21.410 ,4,1,0.,24.0,0.,24.0,0.,24.0,0.,24.0
1979-03-04 16:20:45.410 ,3,1,0.,24.0,0.,24.0,0.,24.0,0.,24.0
1979-03-04 16:21:09.410 ,2,1,0.,24.0,0.,24.0,0.,24.0,0.,24.0
1979-03-04 16:21:33.410 ,1,1,0.,24.0,0.,24.0,0.,24.0,0.,24.0
1979-03-04 16:21:57.410 ,0,1,0.,24.0,0.,24.0,0.,24.0,0.,24.0
1979-03-04 16:22:21.410 ,0,1,0.,24.0,0.,24.0,0.,24.0,0.,24.0
1979-03-04 16:22:45.410 ,0,0,,0,,0,,0,,0
1979-03-04 16:26:03.410 ,0,0,0.,24.0,0.,24.0,0.,24.0,0.,24.0
1979-03-04 16:26:21.410 ,5,1,0.,24.0,0.,24.0,0.,24.0,0.,24.0
1979-03-04 16:26:45.410 ,4,1,0.,24.0,0.,24.0,0.,24.0,0.,24.0
1979-03-04 16:27:09.410 ,3,1,0.,24.0,0.,24.0,0.,24.0,0.,24.0
1979-03-04 16:27:33.410 ,2,1,0.,24.0,0.,24.0,0.,24.0,0.,24.0
1979-03-04 16:27:57.410 ,1,1,0.,24.0,0.,24.0,0.,24.0,0.,24.0
1979-03-04 16:28:21.410 ,0,1,0.,24.0,0.,24.0,0.,24.0,0.,24.0
1979-03-04 16:28:45.410 ,0,1,0.,24.0,0.,24.0,0.,24.0,0.,24.0
1979-03-04 16:29:09.410 ,1,1,0.,24.0,0.,24.0,0.,24.0,0.,24.0
1979-03-04 16:29:33.410 ,2,1,0.,24.0,0.,24.0,0.,24.0,0.,24.0
1979-03-04 16:29:57.410 ,3,1,0.,24.0,0.,24.0,0.,24.0,0.,24.0
1979-03-04 16:30:21.410 ,4,1,0.,24.0,0.,24.0,0.,24.0,0.,24.0
1979-03-04 16:30:45.410 ,5,1,0.,24.0,0.,24.0,0.,24.0,0.,24.0
1979-03-04 16:31:09.410 ,6,1,0.,24.0,0.,24.0,0.,24.0,0.,24.0
1979-03-04 16:31:33.410 ,7,1,0.,24.0,0.,24.0,0.,24.0,0.,24.0
1979-03-04 16:31:57.410 ,7,1,0.,24.0,0.,24.0,0.,24.0,0.,24.0
1979-03-04 16:32:21.410 ,6,1,0.,24.0,0.,24.0,0.,24.0,0.,24.0
1979-03-04 16:32:45.410 ,5,1,0.,24.0,0.,24.0,0.,24.0,0.,24.0
1979-03-04 16:33:09.410 ,4,1,0.,24.0,0.,24.0,0.,24.0,0.,24.0
1979-03-04 16:33:57.410 ,2,1,0.,24.0,0.,24.0,0.,24.0,0.,24.0
1979-03-04 16:34:21.410 ,1,1,0.,24.0,0.,24.0,0.,24.0,0.,24.0
1979-03-04 16:34:45.410 ,0,1,0.,24.0,0.,24.0,0.,24.0,0.,24.0
1979-03-04 16:35:09.410 ,0,1,0.,24.0,0.,24.0,0.,24.0,0.,24.0
1979-03-04 16:35:33.410 ,1,1,0.,24.0,0.,24.0,0.,24.0,0.,24.0
1979-03-04 16:35:57.410 ,2,1,0.,24.0,0.,24.0,0.,24.0,0.,24.0
1979-03-04 16:36:21.410 ,3,1,0.,24.0,0.,24.0,0.,24.0,0.,24.0
1979-03-04 16:36:45.410 ,4,1,0.,24.0,0.,24.0,0.,24.0,0.,24.0
1979-03-04 16:37:09.410 ,5,1,0.,24.0,0.,24.0,0.,24.0,0.,24.0
1979-03-04 16:37:57.410 ,7,1,0.,24.0,0.,24.0,0.,24.0,0.,24.0
1979-03-04 16:38:21.410 ,7,1,0.,24.0,0.,24.0,0.,24.0,0.,24.0
1979-03-04 16:38:45.410 ,6,1,0.,24.0,0.,24.0,0.,24.0,0.,24.0
1979-03-04 16:39:09.410 ,5,1,0.,24.0,0.,24.0,0.,24.0,0.,24.0
1979-03-04 16:39:33.410 ,4,1,0.,24.0,0.,24.0,0.,24.0,0.,24.0
1979-03-04 16:39:57.410 ,3,1,0.,24.0,0.,24.0,0.,24.0,0.,24.0
1979-03-04 16:40:21.410 ,2,1,0.,24.0,0.,24.0,0.,24.0,0.,24.0
1979-03-04 16:40:45.410 ,1,1,0.,24.0,0.,24.0,0.,24.0,0.,24.0
1979-03-04 16:41:09.410 ,0,1,0.,24.0,0.,24.0,0.,24.0,0.,24.0
1979-03-04 16:41:33.410 ,0,1,0.,24.0,0.,24.0,0.,24.0,0.,24.0
1979-03-04 16:41:57.410 ,1,1,0.,24.0,0.,24.0,0.,24.0,0.,24.0
1979-03-04 16:42:21.410 ,2,1,0.,24.0,0.,24.0,0.,24.0,0.,24.0
1979-03-04 16:42:45.410 ,3,1,0.,24.0,0.,24.0,0.,24.0,0.,24.0
1979-03-04 16:43:09.410 ,4,1,0.,24.0,0.,24.0,0.,24.0,0.,24.0
1979-03-04 16:43:33.410 ,5,1,0.,24.0,0.,24.0,0.,24.0,0.,24.0
1979-03-04 16:43:57.410 ,6,1,0.,24.0,0.,24.0,0.,24.0,0.,24.0
1979-03-04 16:44:21.410 ,7,1,0.,24.0,0.,24.0,0.,24.0,0.,24.0
1979-03-04 16:44:45.410 ,7,1,0.,24.0,0.,24.0,0.,24.0,0.,24.0
1979-03-04 16:45:09.410 ,6,1,0.,24.0,0.,24.0,0.,24.0,0.,24.0
1979-03-04 16:45:33.410 ,5,1,0.,24.0,0.,24.0,0.,24.0,0.,24.0
1979-03-04 16:45:57.410 ,4,1,0.,24.0,0.,24.0,0.,24.0,0.,24.0
1979-03-04 16:46:21.410 ,3,1,0.,24.0,0.,24.0,0.,24.0,0.,24.0
1979-03-04 16:46:45.410 ,2,1,0.,24.0,0.,24.0,0.,24.0,0.,24.0
1979-03-04 16:47:09.410 ,1,1,0.,24.0,0.,24.0,0.,24.0,0.,24.0
1979-03-04 16:47:33.410 ,0,1,0.,24.0,0.,24.0,0.,24.0,0.,24.0
1979-03-04 16:47:57.410 ,0,1,0.,24.0,0.,24.0,0.,24.0,0.,24.0
1979-03-04 16:48:21.410 ,1,1,0.,24.0,0.,24.0,0.,24.0,0.,24.0
1979-03-04 16:48:45.410 ,2,1,0.,24.0,0.,24.0,0.,24.0,0.,24.0
1979-03-04 16:49:09.410 ,3,1,0.,24.0,0.,24.0,0.,24.0,0.,24.0
1979-03-04 16:49:33.410 ,4,1,0.,24.0,0.,24.0,0.,24.0,0.,24.0
1979-03-04 16:49:57.410 ,5,1,0.,24.0,0.,24.0,0.,24.0,0.,24.0
1979-03-04 16:50:21.410 ,6,1,0.,24.0,0.,24.0,0.,24.0,0.,24.0
1979-03-04 16:50:45.410 ,7,1,0.,24.0,0.,24.0,0.,24.0,0.,24.0
1979-03-04 16:51:09.410 ,7,1,0.,24.0,0.,24.0,0.,24.0,0.,24.0
1979-03-04 16:51:33.410 ,6,1,0.,24.0,0.,24.0,0.,24.0,0.,24.0
1979-03-04 16:51:57.410 ,5,1,0.,24.0,0.,24.0,0.,24.0,0.,24.0
1979-03-04 16:52:21.410 ,4,1,0.,24.0,0.,24.0,0.,24.0,0.,24.0
1979-03-04 16:52:45.410 ,3,1,0.,24.0,0.,24.0,0.,24.0,0.,24.0
1979-03-04 16:53:09.410 ,2,1,0.,24.0,0.,24.0,0.,24.0,0.,24.0
1979-03-04 16:53:33.410 ,1,1,0.,24.0,0.,24.0,0.,24.0,0.,24.0
1979-03-04 16:53:57.410 ,0,1,0.,24.0,0.,24.0,0.,24.0,0.,24.0
1979-03-04 16:54:21.410 ,0,1,0.,24.0,0.,24.0,0.,24.0,0.,24.0
1979-03-04 16:54:45.410 ,1,1,0.,24.0,0.,24.0,0.,24.0,0.,24.0
1979-03-04 16:55:09.410 ,2,1,0.,24.0,0.,24.0,0.,24.0,0.,24.0
1979-03-04 16:55:33.410 ,3,1,0.,24.0,0.,24.0,0.,24.0,0.,24.0
1979-03-04 16:55:57.410 ,4,1,0.,24.0,0.,24.0,0.,24.0,0.,24.0
1979-03-04 16:56:21.410 ,5,1,0.,24.0,0.,24.0,0.,24.0,0.,24.0
1979-03-04 16:56:45.410 ,6,1,0.,24.0,0.,24.0,0.,24.0,0.,24.0
1979-03-04 16:57:09.410 ,7,1,0.,24.0,0.,24.0,0.,24.0,0.,24.0
1979-03-04 16:57:33.410 ,7,1,0.,24.0,0.,24.0,0.,24.0,0.,24.0
1979-03-04 16:57:57.410 ,6,1,0.,24.0,0.,24.0,0.,24.0,0.,24.0
1979-03-04 16:58:21.410 ,5,1,0.,24.0,0.,24.0,0.,24.0,0.,24.0
1979-03-04 16:58:45.410 ,4,1,0.,24.0,0.,24.0,0.,24.0,0.,24.0
1979-03-04 16:59:09.410 ,3,1,0.,24.0,0.,24.0,0.,24.0,0.,24.0
1979-03-04 16:59:33.410 ,2,1,0.,24.0,0.,24.0,0.,24.0,0.,24.0
1979-03-04 16:59:57.410 ,1,1,0.,24.0,0.,24.0,0.,24.0,0.,24.0
1979-03-04 17:00:21.410 ,0,1,0.,24.0,0.,24.0,0.,24.0,0.,24.0
1979-03-04 17:00:45.410 ,0,1,0.,24.0,0.,24.0,0.,24.0,0.,24.0
1979-03-04 17:01:09.410 ,1,1,0.,24.0,0.,24.0,0.,24.0,0.,24.0
1979-03-04 17:01:33.410 ,2,1,0.,24.0,0.,24.0,0.,24.0,0.,24.0
1979-03-04 17:01:57.410 ,3,1,0.,24.0,0.,24.0,0.,24.0,0.,24.0
1979-03-04 17:02:21.410 ,4,1,0.,24.0,0.,24.0,0.,24.0,0.,24.0
1979-03-04 17:02:45.410 ,5,1,0.,24.0,0.,24.0,0.,24.0,0.,24.0
1979-03-04 17:03:09.410 ,6,1,0.,24.0,0.,24.0,0.,24.0,0.,24.0
1979-03-04 17:03:33.410 ,7,1,0.,24.0,0.,24.0,0.,24.0,0.,24.0
1979-03-04 17:03:57.410 ,7,1,0.,24.0,0.,24.0,0.,24.0,0.,24.0
1979-03-04 17:04:21.410 ,6,1,0.,24.0,0.,24.0,0.,24.0,0.,24.0
1979-03-04 17:04:45.410 ,5,1,0.,24.0,0.,24.0,0.,24.0,0.,24.0
1979-03-04 17:05:09.410 ,4,1,0.,24.0,0.,24.0,0.,24.0,0.,24.0
1979-03-04 17:05:33.410 ,3,1,0.,24.0,0.,24.0,0.,24.0,0.,24.0
1979-03-04 17:05:57.410 ,2,1,0.,24.0,0.,24.0,0.,24.0,0.,24.0
1979-03-04 17:06:21.410 ,1,1,0.,24.0,0.,24.0,0.,24.0,0.,24.0
1979-03-04 17:06:45.410 ,0,1,0.,24.0,0.,24.0,0.,24.0,0.,24.0
1979-03-04 17:07:09.410 ,0,1,0.,24.0,0.,24.0,0.,24.0,0.,24.0
1979-03-04 17:07:33.410 ,1,1,0.,24.0,0.,24.0,0.,24.0,0.,24.0
1979-03-04 17:07:57.410 ,2,1,0.,24.0,0.,24.0,0.,24.0,0.,24.0
1979-03-04 17:08:21.410 ,3,1,0.,24.0,0.,24.0,0.,24.0,0.,24.0
1979-03-04 17:08:45.410 ,4,1,0.,24.0,0.,24.0,0.,24.0,0.,24.0
1979-03-04 17:09:09.410 ,5,1,0.,24.0,0.,24.0,0.,24.0,0.,24.0
1979-03-04 17:09:33.410 ,6,1,0.,24.0,0.,24.0,0.,24.0,0.,24.0
1979-03-04 17:09:57.410 ,7,1,0.,24.0,0.,24.0,0.,24.0,0.,24.0
1979-03-04 17:10:21.410 ,0,0,0.,24.0,0.,24.0,0.,24.0,0.,24.0
1979-03-04 17:10:45.410 ,6,1,0.,24.0,0.,24.0,0.,24.0,0.,24.0
1979-03-04 17:11:09.410 ,5,1,0.,24.0,0.,24.0,0.,24.0,0.,24.0
1979-03-04 17:11:33.410 ,4,1,0.,24.0,0.,24.0,0.,24.0,0.,24.0
1979-03-04 17:11:57.410 ,3,1,0.,24.0,0.,24.0,0.,24.0,0.,24.0
1979-03-04 17:12:21.410 ,2,1,0.,24.0,0.,24.0,0.,24.0,0.,24.0
1979-03-04 17:12:45.410 ,1,1,0.,24.0,0.,24.0,0.,24.0,0.,24.0
1979-03-04 17:13:09.410 ,0,1,0.,24.0,0.,24.0,0.,24.0,0.,24.0
1979-03-04 17:13:33.410 ,0,1,0.,24.0,0.,24.0,0.,24.0,0.,24.0
1979-03-04 17:13:57.410 ,1,1,0.,24.0,0.,24.0,0.,24.0,0.,24.0
1979-03-04 17:14:21.410 ,2,1,0.,24.0,0.,24.0,0.,24.0,0.,24.0
1979-03-04 17:14:45.410 ,3,1,0.,24.0,0.,24.0,0.,24.0,0.,24.0
1979-03-04 17:15:09.410 ,4,1,0.,24.0,0.,24.0,0.,24.0,0.,24.0
1979-03-04 17:15:33.410 ,5,1,0.,24.0,0.,24.0,0.,24.0,0.,24.0
1979-03-04 17:15:57.410 ,6,1,0.,24.0,0.,24.0,0.,24.0,0.,24.0
1979-03-04 17:16:21.410 ,7,1,0.,24.0,0.,24.0,0.,24.0,0.,24.0
1979-03-04 17:16:45.410 ,7,1,0.,24.0,0.,24.0,0.,24.0,0.,24.0
1979-03-04 17:17:09.410 ,6,1,0.,24.0,0.,24.0,0.,24.0,0.,24.0
1979-03-04 17:17:33.410 ,5,1,0.,24.0,0.,24.0,0.,24.0,0.,24.0
1979-03-04 17:17:57.410 ,4,1,0.,24.0,0.,24.0,0.,24.0,0.,24.0
1979-03-04 17:18:21.410 ,3,1,0.,24.0,0.,24.0,0.,24.0,0.,24.0
1979-03-04 17:18:45.410 ,2,1,0.,24.0,0.,24.0,0.,24.0,0.,24.0
1979-03-04 17:19:09.410 ,1,1,0.,24.0,0.,24.0,0.,24.0,0.,24.0
1979-03-04 17:19:33.410 ,0,1,0.,24.0,0.,24.0,0.,24.0,0.,24.0
1979-03-04 17:19:57.410 ,0,1,0.,24.0,0.,24.0,0.,24.0,0.,24.0
1979-03-04 17:20:21.410 ,1,1,0.,24.0,0.,24.0,0.,24.0,0.,24.0
1979-03-04 17:20:45.410 ,0,0,0.,24.0,0.,24.0,0.,24.0,0.,24.0
1979-03-04 17:21:09.410 ,3,1,0.,24.0,0.,24.0,0.,24.0,0.,24.0
1979-03-04 17:21:33.410 ,4,1,0.,24.0,0.,24.0,0.,24.0,0.,24.0
1979-03-04 17:21:57.410 ,5,1,0.,24.0,0.,24.0,0.,24.0,0.,24.0
1979-03-04 17:22:21.410 ,6,1,0.,24.0,0.,24.0,0.,24.0,0.,24.0
1979-03-04 17:22:45.410 ,7,1,0.,24.0,0.,24.0,0.,24.0,0.,24.0
1979-03-04 17:23:09.410 ,7,1,0.,24.0,0.,24.0,0.,24.0,0.,24.0
1979-03-04 17:23:33.410 ,6,1,0.,24.0,0.,24.0,0.,24.0,0.,24.0
1979-03-04 17:23:57.410 ,5,1,0.,24.0,0.,24.0,0.,24.0,0.,24.0
1979-03-04 17:24:21.410 ,4,1,0.,24.0,0.,24.0,0.,24.0,0.,24.0
1979-03-04 17:24:45.410 ,3,1,0.,24.0,0.,24.0,0.,24.0,0.,24.0
1979-03-04 17:25:09.410 ,2,1,0.,24.0,0.,24.0,0.,24.0,0.,24.0
1979-03-04 17:25:33.410 ,1,1,0.,24.0,0.,24.0,0.,24.0,0.,24.0
1979-03-04 17:25:57.410 ,0,1,0.,24.0,0.,24.0,0.,24.0,0.,24.0
1979-03-04 17:26:21.410 ,0,1,0.,24.0,0.,24.0,0.,24.0,0.,24.0
1979-03-04 17:26:45.410 ,1,1,0.,24.0,0.,24.0,0.,24.0,0.,24.0
1979-03-04 17:27:09.410 ,2,1,0.,24.0,0.,24.0,0.,24.0,0.,24.0
1979-03-04 17:27:33.410 ,3,1,0.,24.0,0.,24.0,0.,24.0,0.,24.0
1979-03-04 17:27:57.410 ,4,1,0.,24.0,0.,24.0,0.,24.0,0.,24.0
1979-03-04 17:28:21.410 ,5,1,0.,24.0,0.,24.0,0.,24.0,0.,24.0
1979-03-04 17:28:45.410 ,6,1,0.,24.0,0.,24.0,0.,24.0,0.,24.0
1979-03-04 17:29:09.410 ,7,1,0.,24.0,0.,24.0,0.,24.0,0.,24.0
1979-03-04 17:29:33.410 ,7,1,0.,24.0,0.,24.0,0.,24.0,0.,24.0
1979-03-04 17:29:57.410 ,6,1,0.,24.0,0.,24.0,0.,24.0,0.,24.0
1979-03-04 17:30:21.410 ,5,1,0.,24.0,0.,24.0,0.,24.0,0.,24.0
1979-03-04 17:30:45.410 ,4,1,0.,24.0,0.,24.0,0.,24.0,0.,24.0
1979-03-04 17:31:09.410 ,3,1,0.,24.0,0.,24.0,0.,24.0,0.,24.0
1979-03-04 17:31:33.410 ,2,1,0.,24.0,0.,24.0,0.,24.0,0.,24.0
1979-03-04 17:31:57.410 ,1,1,0.,24.0,0.,24.0,0.,24.0,0.,24.0
1979-03-04 17:32:21.410 ,0,1,0.,24.0,0.,24.0,0.,24.0,0.,24.0
1979-03-04 17:32:45.410 ,0,1,0.,24.0,0.,24.0,0.,24.0,0.,24.0
1979-03-04 17:33:09.410 ,1,1,0.,24.0,0.,24.0,0.,24.0,0.,24.0
1979-03-04 17:33:33.410 ,2,1,0.,24.0,0.,24.0,0.,24.0,0.,24.0
1979-03-04 17:33:57.410 ,3,1,0.,24.0,0.,24.0,0.,24.0,0.,24.0
1979-03-04 17:34:21.410 ,4,1,0.,24.0,0.,24.0,0.,24.0,0.,24.0
1979-03-04 17:34:45.410 ,5,1,0.,24.0,0.,24.0,0.,24.0,0.,24.0
1979-03-04 17:35:09.410 ,6,1,0.,24.0,0.,24.0,0.,24.0,0.,24.0
1979-03-04 17:35:33.410 ,7,1,0.,24.0,0.,24.0,0.,24.0,0.,24.0
1979-03-04 17:35:57.410 ,7,1,0.,24.0,0.,24.0,0.,24.0,0.,24.0
1979-03-04 17:36:21.410 ,6,1,0.,24.0,0.,24.0,0.,24.0,0.,24.0
1979-03-04 17:36:45.410 ,5,1,0.,24.0,0.,24.0,0.,24.0,0.,24.0
1979-03-04 17:37:09.410 ,4,1,0.,24.0,0.,24.0,0.,24.0,0.,24.0
1979-03-04 17:37:33.410 ,3,1,0.,24.0,0.,24.0,0.,24.0,0.,24.0
1979-03-04 17:37:57.410 ,2,1,0.,24.0,0.,24.0,0.,24.0,0.,24.0
1979-03-04 17:38:21.410 ,0,0,0.,24.0,0.,24.0,0.,24.0,0.,24.0
1979-03-04 17:38:45.410 ,2,1,0.,24.0,0.,24.0,0.,24.0,0.,24.0
1979-03-04 17:39:09.410 ,6,1,0.,24.0,0.,24.0,0.,24.0,0.,24.0
1979-03-04 17:39:33.410 ,5,1,0.,24.0,0.,24.0,0.,24.0,0.,24.0
1979-03-04 17:39:57.410 ,1,1,0.,24.0,0.,24.0,0.,24.0,0.,24.0
1979-03-04 17:40:21.410 ,2,1,0.,24.0,0.,24.0,0.,24.0,0.,24.0
1979-03-04 17:40:45.410 ,6,1,0.,24.0,0.,24.0,0.,24.0,0.,24.0
1979-03-04 17:41:09.410 ,5,1,0.,24.0,0.,24.0,0.,24.0,0.,24.0
1979-03-04 17:41:33.410 ,1,1,0.,24.0,0.,24.0,0.,24.0,0.,24.0
1979-03-04 17:41:57.410 ,2,1,0.,24.0,0.,24.0,0.,24.0,0.,24.0
1979-03-04 17:42:21.410 ,6,1,0.,24.0,0.,24.0,0.,24.0,0.,24.0
1979-03-04 17:42:45.410 ,5,1,0.,24.0,0.,24.0,0.,24.0,0.,24.0
1979-03-04 17:43:09.410 ,1,1,0.,24.0,0.,24.0,0.,24.0,0.,24.0
1979-03-04 17:43:33.410 ,2,1,0.,24.0,0.,24.0,0.,24.0,0.,24.0
1979-03-04 17:43:57.410 ,6,1,0.,24.0,0.,24.0,0.,24.0,0.,24.0
1979-03-04 17:44:21.410 ,5,1,0.,24.0,0.,24.0,0.,24.0,0.,24.0
1979-03-04 17:44:45.410 ,1,1,0.,24.0,0.,24.0,0.,24.0,0.,24.0
1979-03-04 17:45:09.410 ,2,1,0.,24.0,0.,24.0,0.,24.0,0.,24.0
1979-03-04 17:45:33.410 ,6,1,0.,24.0,0.,24.0,0.,24.0,0.,24.0
1979-03-04 17:45:57.410 ,5,1,0.,24.0,0.,24.0,0.,24.0,0.,24.0
1979-03-04 17:46:21.410 ,1,1,0.,24.0,0.,24.0,0.,24.0,0.,24.0
1979-03-04 17:46:45.410 ,2,1,0.,24.0,0.,24.0,0.,24.0,0.,24.0
1979-03-04 17:47:09.410 ,6,1,0.,24.0,0.,24.0,0.,24.0,0.,24.0
1979-03-04 17:47:33.410 ,5,1,0.,24.0,0.,24.0,0.,24.0,0.,24.0
1979-03-04 17:47:57.410 ,1,1,0.,24.0,0.,24.0,0.,24.0,0.,24.0
1979-03-04 17:48:21.410 ,2,1,0.,24.0,0.,24.0,0.,24.0,0.,24.0
1979-03-04 17:48:45.410 ,6,1,0.,24.0,0.,24.0,0.,24.0,0.,24.0
1979-03-04 17:49:09.410 ,5,1,0.,24.0,0.,24.0,0.,24.0,0.,24.0
1979-03-04 17:49:33.410 ,1,1,0.,24.0,0.,24.0,0.,24.0,0.,24.0
1979-03-04 17:49:57.410 ,2,1,0.,24.0,0.,24.0,0.,24.0,0.,24.0
1979-03-04 17:50:21.410 ,6,1,0.,24.0,0.,24.0,0.,24.0,0.,24.0
1979-03-04 17:50:45.410 ,5,1,0.,24.0,0.,24.0,0.,24.0,0.,24.0
1979-03-04 17:51:09.410 ,1,1,0.,24.0,0.,24.0,0.,24.0,0.,24.0